Flag for U.S.A. Weather past 2 weeks in Eau Claire, Wisconsin, U.S.A.

Now
42 °F

Clear.


Feels Like: 40 °F
Forecast: 38 / 65 °F
Wind: 3 mph from Southwest

Location: Eau Claire County Airport

Current Time: Sep 16, 2014 at 2:56:19 AM

Latest Report: Sep 16, 2014 at 1:56 AM


Visibility: 10 mi

Pressure: 30.21 "Hg

Humidity: 89%

Dew point: 39 °F

Location of Eau ClaireLocation

Historic Weather in Eau Claire — Graph

°F

Eau Claire temperature yesterday

Maximum temperature yesterday: 61 °F (at 1:56 PM)
Minimum temperature yesterday: 41 °F (at 11:56 PM)
Average temperature yesterday: 53 °F

Past Weeks' High & Low Weather Summary

 TemperatureHumidityPressure
High78 °F (Sep 2, 3:56 PM)100% (Sep 1, 1:59 AM)30.44 "Hg (Sep 1, 1:59 AM)
Low35 °F (Sep 13, 1:56 AM)39% (Sep 7, 2:56 PM)29.59 "Hg (Sep 10, 5:56 AM)
Average59 °F78%30.02 "Hg
* Reported Sep 1 12:56 AM — Sep 16 12:56 AM, Eau Claire, Weather by CustomWeather, © 2014

Note: Actual official high and low records may vary slightly from our data, if they occured in-between our weather recording intervals... More about our weather records

Advertising

Eau Claire weather history for previous 24 hours

 ConditionsComfort  
Time TempWeatherWind HumidityBarometerVisibility
12:56 AM
Sep 16
43 °FClear.No wind86%30.21 "Hg10 mi
11:56 PM
Sep 15
41 °FClear.3 mph89%30.22 "Hg10 mi
10:56 PM42 °FClear.No wind85%30.22 "Hg10 mi
9:56 PM43 °FClear.No wind86%30.22 "Hg10 mi
8:56 PM46 °FClear.No wind79%30.21 "Hg10 mi
7:56 PM51 °FSunny.5 mph63%30.19 "Hg10 mi
6:56 PM55 °FSunny.5 mph55%30.18 "Hg10 mi
5:56 PM59 °FScattered clouds.10 mph44%30.17 "Hg10 mi
4:56 PM61 °FPassing clouds.16 mph39%30.16 "Hg10 mi
3:56 PM60 °FPartly sunny.8 mph41%30.16 "Hg10 mi
2:56 PM60 °FPartly sunny.8 mph46%30.17 "Hg10 mi
1:56 PM61 °FSunny.7 mph46%30.17 "Hg10 mi
12:56 PM60 °FPassing clouds.10 mph52%30.18 "Hg10 mi
11:56 AM58 °FBroken clouds.12 mph60%30.18 "Hg10 mi
10:56 AM56 °FSunny.9 mph67%30.18 "Hg10 mi
9:56 AM52 °FMostly cloudy.No wind77%30.18 "Hg10 mi
8:56 AM51 °FOvercast.5 mph80%30.17 "Hg10 mi
7:56 AM50 °FPartly sunny.3 mph83%30.17 "Hg10 mi
6:56 AM50 °FOvercast.No wind86%30.16 "Hg10 mi
5:56 AM50 °FOvercast.No wind83%30.15 "Hg10 mi
4:56 AM51 °FOvercast.No wind77%30.14 "Hg10 mi
3:56 AM51 °FMostly cloudy.No wind86%30.14 "Hg10 mi
2:56 AM51 °FOvercast.No wind83%30.13 "Hg10 mi
Weather by CustomWeather, © 2014

See weather overviewHow to use our weather pages